Regional Weather Roundup
Issued by NWS

Home | Current Version | Previous Version | Graphics & Text | Print | Product List | Glossary On
Versions: 1 2 3 4 5 6 7 8 9 10 11 12 13 14 15 16 17 18 19 20 21 22 23 24 25 26 27 28 29 30 31 32 33 34 35 36 37 38 39 40 41 42 43 44 45 46 47 48 49 50
384
ASUS43 KLMK 211810
RWRKY
KENTUCKY REGIONAL WEATHER ROUNDUP
NATIONAL WEATHER SERVICE LOUISVILLE KY
200 PM EDT FRI JUL 21 2017

NOTE "FAIR" INDICATES FEW OR NO CLOUDS BELOW 12,000 FEET
WITH NO SIGNIFICANT WEATHER AND/OR OBSTRUCTIONS TO VISIBILITY.

KYZ001>023-026-027-061>063-070>075-211900-
WESTERN AND SOUTH CENTRAL KENTUCKY

CITY           SKY/WX    TMP DP  RH WIND       PRES   REMARKS
PADUCAH        SUNNY     96  75  50 SW8       29.99F HX 108
HENDERSON      MOSUNNY   94  78  60 SW7       30.00F HX 110
OWENSBORO      MOSUNNY   93  79  63 SW7       30.00F HX 110
HOPKINSVILLE   MOSUNNY   92  76  60 W5        30.02F HX 103
BOWLING GREEN  MOSUNNY   93  74  53 S7        30.03F HX 103
GLASGOW        MOSUNNY   92  71  50 W5        30.04F HX  98
$$

KYZ024-025-028>034-038-045-046-053-211900-
NORTH CENTRAL KENTUCKY

CITY           SKY/WX    TMP DP  RH WIND       PRES   REMARKS
LOUISVILLE/SDF CLOUDY    95  74  50 S13G18    30.00F HX 105
LOUISVILLE/LOU MOSUNNY   93  76  57 SE13      30.01F HX 105
FORT KNOX      MOSUNNY   90  77  64 SW5       30.02F HX 103
$$

KYZ035>037-039>044-047>052-055>060-089>105-211900-
NORTHEAST KENTUCKY

CITY           SKY/WX    TMP DP  RH WIND       PRES   REMARKS
LEXINGTON      MOSUNNY   91  70  49 SW10      30.04F HX  96
COVINGTON      CLOUDY    83  75  77 S8        30.04S HX  90
FRANKFORT      MOSUNNY   91  73  55 SW7       30.02F HX  99
$$

KYZ054-064>069-076>088-106>120-211900-
SOUTHEAST KENTUCKY

CITY           SKY/WX    TMP DP  RH WIND       PRES   REMARKS
JACKSON        CLOUDY    88  74  63 VRB3      30.08F HX  96
LONDON         PTSUNNY   90  70  51 VRB3      30.08F HX  95
SOMERSET       CLOUDY    88  68  51 CALM      30.08S HX  91
MIDDLESBORO    PTSUNNY   88  72  58 CALM      30.09F HX  94
MONTICELLO     CLEAR     90  75  61 VRB7      30.09F HX 100
$$





USA.gov is the U.S. government's official web portal to all federal, state and local government web resources and services.